1489035601.22,59243,6.94,73216.0,-6.25,-13.37,-11.81,0,*57
1489035602.48,59244,6.94,73218.3,-6.29,-13.23,-11.63,0,*55
1489035603.73,59245,6.94,73216.3,-6.29,-13.01,-11.45,0,*50
1489035604.98,59246,6.94,73216.8,-6.29,-12.89,-11.33,0,*53
1489035606.21,59247,6.94,73216.5,-6.25,-12.57,-11.23,0,*5C
1489035607.49,59248,6.94,73218.8,-6.29,-12.57,-11.07,0,*59
1489035608.72,59249,6.94,73222.0,-6.29,-12.39,-11.01,0,*56
1489035609.98,59250,6.94,73216.8,-6.29,-12.15,-10.89,0,*51
1489035611.26,59251,6.94,73218.5,-6.29,-11.97,-10.63,0,*5D
1489035612.54,59252,6.94,73212.3,-6.29,-11.85,-10.63,0,*5D
1489035613.82,59253,6.94,73208.5,-6.29,-11.77,-10.63,0,*51
1489035615.08,59254,6.94,73208.3,-6.29,-11.59,-10.57,0,*5D
1489035616.31,59255,6.94,73206.5,-6.29,-11.45,-10.49,0,*5E
1489035617.57,59256,6.94,73208.3,-6.29,-11.37,-10.49,0,*58
1489035618.83,59257,6.94,73206.3,-6.29,-11.29,-10.49,0,*56
1489035620.05,59258,6.94,73204.8,-6.29,-11.19,-10.45,0,*56
1489035621.31,59259,6.94,73216.3,-6.29,-11.07,-10.45,0,*58
1489035622.54,59260,6.94,73216.8,-6.29,-10.93,-10.45,0,*5E
1489035623.77,59261,6.94,73222.0,-6.29,-10.93,-10.45,0,*5F
1489035625.0,59262,6.94,73228.8,-6.29,-10.93,-10.45,0,*5C
1489035626.23,59263,6.94,73218.8,-6.29,-10.89,-10.45,0,*56
1489035627.46,59264,6.94,73224.3,-6.29,-10.93,-10.45,0,*5A
1489035628.7,59265,6.94,73212.3,-6.25,-10.89,-10.41,0,*58
1489035629.93,59266,6.94,73216.5,-6.29,-10.93,-10.45,0,*58
1489035631.17,59267,6.94,73216.0,-6.29,-11.01,-10.35,0,*54
1489035632.4,59268,6.94,73208.5,-6.29,-11.15,-10.49,0,*55
1489035633.66,59269,6.94,73210.8,-6.29,-11.07,-10.49,0,*57
1489035634.87,59270,6.94,73208.8,-6.25,-11.15,-10.45,0,*5C
1489035636.11,59271,6.94,73202.8,-6.25,-11.11,-10.41,0,*5D
1489035637.33,59272,6.94,73206.0,-6.25,-11.11,-10.31,0,*59
1489035638.57,59273,6.94,73204.0,-6.25,-11.15,-10.41,0,*5B
1489035639.81,59274,6.94,73200.5,-6.25,-11.37,-10.31,0,*5B
1489035641.04,59275,6.94,73202.3,-6.29,-11.41,-10.45,0,*54
1489035642.28,59276,6.94,73202.3,-6.29,-11.41,-10.35,0,*50
1489035643.52,59277,6.94,73204.0,-6.25,-11.37,-10.27,0,*5F
1489035644.77,59278,6.94,73204.8,-6.25,-11.37,-10.27,0,*50
1489035646.02,59279,6.94,73204.0,-6.29,-11.33,-10.23,0,*5D
1489035647.25,59280,6.94,73192.5,-6.29,-11.45,-10.09,0,*52
1489035648.5,59281,6.94,73184.8,-6.25,-11.37,-10.15,0,*57
1489035649.73,59282,6.94,73186.0,-6.25,-11.37,-10.05,0,*55
1489035650.97,59283,6.94,73192.5,-6.25,-11.37,-10.05,0,*54
1489035652.21,59284,6.94,73194.8,-6.25,-11.37,-10.01,0,*57
1489035653.45,59285,6.94,73192.5,-6.25,-11.37,-10.01,0,*56
1489035654.68,59286,6.94,73188.3,-6.25,-11.37,-10.05,0,*51
1489035655.92,59287,6.94,73192.0,-6.25,-11.29,-10.05,0,*5F
1489035657.16,59288,6.94,73188.0,-6.25,-11.29,-10.05,0,*50
1489035658.39,59289,6.94,73184.0,-6.25,-11.41,-10.19,0,*52
1489035659.62,59290,6.94,73186.8,-6.25,-11.37,-10.05,0,*56
1489035660.85,59291,6.94,73198.5,-6.25,-11.45,-10.15,0,*53
1489035662.07,59292,6.94,73204.8,-6.25,-11.45,-10.15,0,*50
1489035663.29,59293,6.94,73206.5,-6.25,-11.41,-10.15,0,*55
1489035664.51,59294,6.94,73190.8,-6.25,-11.45,-10.05,0,*57
1489035665.76,59295,6.94,73196.5,-6.25,-11.55,-10.01,0,*53
1489035667.02,59296,6.94,73194.3,-6.23,-11.55,-10.01,0,*56
1489035668.29,59297,6.94,73184.0,-6.23,-11.59,-10.05,0,*5F
1489035669.55,59298,6.94,73184.8,-6.23,-11.59,-10.05,0,*50
1489035670.81,59299,6.94,73186.3,-6.23,-11.55,-10.15,0,*5C
1489035672.06,59300,6.94,73186.5,-6.21,-11.55,-10.01,0,*5A
1489035673.33,59301,6.94,73184.0,-6.23,-11.59,-10.27,0,*51
1489035674.59,59302,6.94,73188.8,-6.23,-11.73,-10.27,0,*5A
1489035675.88,59303,6.94,73188.0,-6.23,-11.73,-10.41,0,*5B
1489035677.16,59304,6.94,73196.3,-6.23,-11.81,-10.41,0,*51
1489035678.43,59305,6.94,73202.0,-6.25,-11.81,-10.41,0,*56
1489035679.66,59306,6.94,73200.8,-6.25,-11.85,-10.53,0,*52
1489035680.9,59307,6.94,73204.0,-6.25,-11.85,-10.53,0,*53
1489035682.13,59308,6.94,73202.0,-6.29,-12.03,-10.57,0,*59
1489035683.37,59309,6.94,73206.5,-6.21,-11.93,-10.57,0,*5A
1489035684.64,59310,6.94,73204.0,-6.25,-12.07,-10.75,0,*58
1489035685.85,59311,6.94,73210.5,-6.25,-12.39,-10.89,0,*57
1489035687.07,59312,6.94,73204.3,-6.29,-12.43,-11.01,0,*54
1489035688.31,59313,6.94,73206.8,-6.25,-12.57,-11.15,0,*59
1489035689.56,59314,6.94,73214.3,-6.29,-12.61,-11.19,0,*5B
1489035690.79,59315,6.94,73216.8,-6.29,-12.47,-11.19,0,*5E
1489035692.04,59316,6.94,73208.5,-6.29,-12.47,-11.29,0,*5E
1489035693.31,59317,6.94,73204.5,-6.29,-12.57,-11.33,0,*55
1489035694.55,59318,6.94,73200.5,-6.25,-12.65,-11.41,0,*52
1489035695.83,59319,6.94,73204.8,-6.29,-12.83,-11.63,0,*57
1489035697.11,59320,6.94,73210.3,-6.29,-12.75,-11.73,0,*55
1489035698.39,59321,6.94,73210.3,-6.29,-12.71,-11.63,0,*51
1489035699.64,59322,6.94,73212.3,-6.31,-12.61,-11.59,0,*53
1489035700.92,59323,6.94,73220.8,-6.29,-12.71,-11.73,0,*52
1489035702.19,59324,6.94,73228.0,-6.29,-12.61,-11.77,0,*50
1489035703.46,59325,6.94,73228.3,-6.29,-12.61,-11.85,0,*5C
1489035704.72,59326,6.94,73230.0,-6.31,-12.61,-11.85,0,*56
1489035705.99,59327,6.94,73226.8,-6.29,-12.57,-11.85,0,*5B
1489035707.27,59328,6.94,73218.3,-6.29,-12.57,-11.89,0,*58
1489035708.52,59329,6.94,73206.0,-6.31,-12.61,-11.97,0,*5A
1489035709.75,59330,6.94,73206.5,-6.31,-12.71,-12.03,0,*5D
1489035710.98,59331,6.94,73218.0,-6.31,-12.83,-12.25,0,*55
1489035712.21,59332,6.94,73226.0,-6.31,-12.83,-12.39,0,*5B
1489035713.41,59333,6.94,73226.3,-6.31,-12.89,-12.39,0,*50
1489035714.62,59334,6.94,73220.5,-6.31,-12.89,-12.47,0,*5E
1489035715.85,59335,6.94,73214.3,-6.31,-12.89,-12.57,0,*5E
1489035717.08,59336,6.94,73212.5,-6.31,-12.97,-12.61,0,*57
1489035718.3,59337,6.94,73210.3,-6.31,-13.11,-12.83,0,*55
1489035719.51,59338,6.94,73210.8,-6.31,-13.15,-12.89,0,*54
1489035720.73,59339,6.94,73220.3,-6.29,-13.15,-12.89,0,*5C
1489035721.94,59340,6.94,73212.8,-6.31,-13.23,-12.97,0,*51
1489035723.22,59341,6.94,73206.3,-6.33,-13.29,-13.01,0,*56
1489035724.47,59342,6.94,73210.3,-6.33,-13.29,-13.07,0,*53
1489035725.72,59343,6.94,73198.3,-6.33,-13.37,-13.07,0,*5D
1489035726.98,59344,6.94,73204.3,-6.33,-13.33,-13.15,0,*5D
1489035728.24,59345,6.94,73186.8,-6.33,-13.51,-13.37,0,*58
1489035729.48,59346,6.94,73198.3,-6.33,-13.51,-13.19,0,*57
1489035730.73,59347,6.94,73196.8,-6.33,-13.65,-13.37,0,*5D
1489035732.01,59348,6.94,73208.0,-6.33,-13.61,-13.29,0,*59
1489035733.26,59349,6.94,73204.8,-6.33,-13.51,-13.19,0,*58
1489035734.49,59350,6.94,73214.3,-6.33,-13.51,-13.15,0,*5C
1489035735.72,59351,6.94,73202.8,-6.33,-13.51,-13.15,0,*5D
1489035736.98,59352,6.94,73216.3,-6.33,-13.61,-13.15,0,*5D
1489035738.23,59353,6.94,73208.8,-6.33,-13.65,-13.29,0,*57
1489035739.49,59354,6.94,73206.8,-6.35,-13.61,-13.29,0,*52
1489035740.74,59355,6.94,73210.0,-6.33,-13.65,-13.29,0,*51
1489035741.99,59356,6.94,73214.5,-6.33,-13.73,-13.29,0,*55
1489035743.22,59357,6.94,73208.5,-6.35,-13.73,-13.29,0,*52
1489035744.48,59358,6.94,73200.8,-6.37,-13.79,-13.23,0,*5F
1489035745.68,59359,6.94,73214.0,-6.35,-13.65,-13.15,0,*54
1489035746.91,59360,6.94,73210.0,-6.37,-13.65,-13.19,0,*50
1489035748.14,59361,6.94,73208.8,-6.37,-13.65,-13.07,0,*5E
1489035749.37,59362,6.94,73218.0,-6.37,-13.51,-13.11,0,*5D
1489035750.6,59363,6.94,73216.8,-6.35,-13.47,-13.01,0,*58
1489035751.83,59364,6.94,73200.3,-6.39,-13.33,-12.93,0,*5A
1489035753.08,59365,6.94,73224.3,-6.37,-13.33,-12.93,0,*55
1489035754.32,59366,6.94,73214.5,-6.37,-13.23,-12.93,0,*57
1489035755.57,59367,6.94,73212.8,-6.37,-13.19,-12.83,0,*5E
1489035756.83,59368,6.94,73230.0,-6.37,-13.11,-12.79,0,*5C
1489035758.09,59369,6.94,73186.3,-6.37,-13.07,-12.71,0,*52
1489035759.35,59370,6.94,73198.3,-6.39,-13.01,-12.71,0,*52
1489035760.6,59371,6.94,73196.3,-6.37,-12.93,-12.65,0,*52
1489035761.89,59372,6.94,73196.3,-6.37,-12.83,-12.71,0,*55
1489035763.17,59373,6.94,73192.8,-6.37,-12.83,-12.71,0,*54
1489035764.4,59374,6.94,73196.0,-6.39,-12.89,-12.75,0,*53
1489035765.67,59375,6.94,73186.3,-6.39,-12.75,-12.71,0,*55
1489035766.93,59376,6.94,73184.8,-6.39,-12.71,-12.71,0,*52
1489035768.2,59377,6.94,73180.0,-6.39,-12.57,-12.71,0,*57
1489035769.46,59378,6.94,73190.8,-6.39,-12.57,-12.71,0,*58
1489035770.74,59379,6.94,73192.8,-6.41,-12.53,-12.61,0,*53
1489035772.0,59380,6.94,73196.5,-6.39,-12.57,-12.61,0,*5E
1489035773.23,59381,6.94,73186.3,-6.39,-12.43,-12.61,0,*5A
1489035774.47,59382,6.94,73188.0,-6.39,-12.29,-12.57,0,*50
1489035775.72,59383,6.94,73192.5,-6.41,-12.43,-12.61,0,*57
1489035776.95,59384,6.94,73206.3,-6.41,-12.39,-12.43,0,*5D
1489035778.23,59385,6.94,73170.5,-6.41,-12.11,-12.15,0,*55
1489035779.44,59386,6.94,73152.3,-6.39,-12.25,-12.39,0,*50
1489035780.65,59387,6.94,73174.5,-6.39,-12.29,-12.39,0,*5D
1489035781.86,59388,6.94,73186.0,-6.39,-12.39,-12.39,0,*53
1489035783.12,59389,6.94,73184.5,-6.39,-12.53,-12.53,0,*52
1489035784.36,59390,6.94,73188.5,-6.39,-12.53,-12.43,0,*5B
1489035785.62,59391,6.94,73190.5,-6.39,-12.71,-12.53,0,*5B
1489035786.88,59392,6.94,73178.5,-6.39,-12.71,-12.57,0,*5C
1489035788.14,59393,6.94,73180.3,-6.39,-12.75,-12.61,0,*5C
1489035789.37,59394,6.94,73188.8,-6.39,-12.97,-12.61,0,*57
1489035790.64,59395,6.94,73190.0,-6.39,-13.01,-12.75,0,*5D
1489035791.89,59396,6.94,73194.8,-6.41,-13.15,-12.83,0,*5D
1489035793.13,59397,6.94,73194.5,-6.39,-13.11,-12.71,0,*5A
1489035794.38,59398,6.94,73180.0,-6.39,-13.01,-12.57,0,*50
1489035795.62,59399,6.94,73176.0,-6.39,-13.01,-12.39,0,*59
1489035796.83,59400,6.94,73182.3,-6.39,-13.11,-12.43,0,*52
1489035798.08,59401,6.94,73186.5,-6.37,-13.11,-12.57,0,*58
1489035799.34,59402,6.94,73194.3,-6.37,-13.19,-12.57,0,*53
1489035800.61,59403,6.94,73196.5,-6.37,-13.37,-12.57,0,*5E
1489035801.86,59404,6.94,73204.0,-6.35,-13.51,-12.79,0,*57
1489035803.11,59405,6.94,73214.3,-6.37,-13.55,-12.79,0,*50
1489035804.37,59406,6.94,73220.5,-6.37,-13.65,-12.79,0,*50
1489035805.6,59407,6.94,73224.5,-6.35,-13.51,-12.65,0,*59
1489035806.86,59408,6.94,73232.3,-6.37,-13.65,-12.71,0,*56
1489035808.12,59409,6.94,73242.0,-6.37,-13.69,-12.71,0,*5B
1489035809.38,59410,6.94,73214.8,-6.37,-13.69,-12.71,0,*53
1489035810.64,59411,6.94,73210.8,-6.37,-13.69,-12.79,0,*5A
1489035811.92,59412,6.94,73204.8,-6.37,-13.79,-12.83,0,*5D
1489035813.2,59413,6.94,73240.8,-6.37,-13.83,-12.83,0,*59
1489035814.48,59414,6.94,73236.3,-6.37,-13.79,-12.79,0,*5E
1489035815.76,59415,6.94,73192.8,-6.37,-13.79,-12.79,0,*5F
1489035817.02,59416,6.94,73194.0,-6.35,-13.79,-12.75,0,*52
1489035818.29,59417,6.94,73186.5,-6.37,-13.83,-12.93,0,*5C
1489035819.55,59418,6.94,73206.0,-6.35,-13.83,-12.79,0,*55
1489035820.81,59419,6.94,73162.3,-6.37,-13.83,-12.93,0,*52
1489035822.03,59420,6.94,73136.5,-6.35,-13.73,-12.89,0,*5E
1489035823.26,59421,6.94,73160.0,-6.35,-13.79,-12.93,0,*5E
1489035824.47,59422,6.94,73176.0,-6.35,-13.73,-12.93,0,*57
1489035825.73,59423,6.94,73160.5,-6.37,-13.97,-13.11,0,*55
1489035826.93,59424,6.94,73176.3,-6.35,-13.93,-13.15,0,*50
1489035828.16,59425,6.94,73158.8,-6.33,-13.93,-13.15,0,*57
1489035829.39,59426,6.94,73146.0,-6.35,-13.87,-13.07,0,*54
1489035830.61,59427,6.94,73126.5,-6.33,-13.93,-13.15,0,*55
1489035831.84,59428,6.94,73142.0,-6.35,-14.05,-13.47,0,*53
1489035833.05,59429,6.94,73168.8,-6.35,-14.29,-13.65,0,*5C
1489035834.27,59430,6.94,73206.0,-6.35,-14.29,-13.79,0,*59
1489035835.5,59431,6.94,73204.0,-6.35,-14.33,-13.79,0,*53
1489035836.72,59432,6.94,73218.3,-6.35,-14.33,-13.79,0,*50
1489035837.95,59433,6.94,73204.8,-6.35,-14.33,-13.79,0,*51
1489035839.17,59434,6.94,73208.3,-6.35,-14.33,-13.79,0,*56
1489035840.41,59435,6.94,73216.0,-6.35,-14.47,-13.93,0,*50
1489035841.64,59436,6.94,73212.3,-6.35,-14.37,-14.01,0,*58
1489035842.91,59437,6.94,73216.3,-6.35,-14.51,-14.05,0,*5D
1489035844.17,59438,6.94,73214.3,-6.35,-14.51,-14.01,0,*56
1489035845.44,59439,6.94,73188.5,-6.35,-14.51,-14.01,0,*57
1489035846.7,59440,6.94,73190.8,-6.35,-14.51,-14.05,0,*5D
1489035847.91,59441,6.94,73176.5,-6.35,-14.37,-13.93,0,*54
1489035849.11,59442,6.94,73188.3,-6.35,-14.61,-14.19,0,*51
1489035850.32,59443,6.94,73196.0,-6.35,-14.61,-14.19,0,*50
1489035851.54,59444,6.94,73184.8,-6.35,-14.75,-14.33,0,*5A
1489035852.75,59445,6.94,73190.8,-6.35,-14.89,-14.33,0,*58
1489035854.03,59446,6.94,73186.3,-6.33,-14.93,-14.47,0,*55
1489035855.31,59447,6.94,73170.0,-6.33,-15.01,-14.47,0,*5E
1489035856.56,59448,6.94,73186.3,-6.33,-15.07,-14.51,0,*50
1489035857.81,59449,6.94,73196.3,-6.33,-15.07,-14.51,0,*51
1489035859.07,59450,6.94,73226.5,-6.33,-15.07,-14.51,0,*59
1489035860.3,59451,6.94,73208.8,-6.33,-15.07,-14.61,0,*5B
1489035861.55,59452,6.94,73218.8,-6.33,-15.15,-14.51,0,*58
1489035862.81,59453,6.94,73196.8,-6.33,-15.07,-14.47,0,*5D
1489035864.07,59454,6.94,73198.8,-6.33,-15.07,-14.47,0,*5A
1489035865.32,59455,6.94,73222.5,-6.33,-15.07,-14.51,0,*5C
1489035866.57,59456,6.94,73232.8,-6.33,-15.07,-14.51,0,*5F
1489035867.83,59457,6.94,73240.0,-6.33,-15.15,-14.51,0,*5D
1489035869.09,59458,6.94,73232.0,-6.33,-15.07,-14.47,0,*56
1489035870.34,59459,6.94,73230.5,-6.33,-14.93,-14.37,0,*5C
1489035871.58,59460,6.94,73234.5,-6.33,-15.01,-14.29,0,*53
1489035872.83,59461,6.94,73224.0,-6.33,-14.93,-14.33,0,*53
1489035874.08,59462,6.94,73230.3,-6.33,-14.93,-14.33,0,*50
1489035875.3,59463,6.94,73214.8,-6.31,-14.97,-14.29,0,*5C
1489035876.58,59464,6.94,73226.5,-6.33,-15.01,-14.47,0,*5F
1489035877.83,59465,6.94,73236.3,-6.33,-14.93,-14.33,0,*57
1489035879.08,59466,6.94,73234.5,-6.33,-14.93,-14.37,0,*50
1489035880.28,59467,6.94,73220.0,-6.31,-14.89,-14.23,0,*5D
1489035881.53,59468,6.94,73224.0,-6.33,-15.01,-14.33,0,*50
1489035882.78,59469,6.94,73222.0,-6.33,-14.93,-14.33,0,*5B
1489035884.01,59470,6.94,73214.5,-6.33,-15.07,-14.33,0,*5F
1489035885.23,59471,6.94,73216.3,-6.31,-15.01,-14.33,0,*5A
1489035886.45,59472,6.94,73200.3,-6.31,-14.97,-14.29,0,*5C
1489035887.67,59473,6.94,73196.8,-6.31,-15.01,-14.29,0,*53
1489035888.89,59474,6.94,73204.5,-6.33,-15.07,-14.33,0,*5B
1489035890.12,59475,6.94,73204.0,-6.33,-15.07,-14.37,0,*5E
1489035891.34,59476,6.94,73212.5,-6.31,-15.11,-14.43,0,*5B
1489035892.6,59477,6.94,73220.3,-6.33,-15.25,-14.47,0,*5B
1489035893.82,59478,6.94,73216.8,-6.31,-15.21,-14.33,0,*51
1489035895.03,59479,6.94,73214.5,-6.31,-15.15,-14.33,0,*57
1489035896.27,59480,6.94,73220.3,-6.31,-15.21,-14.43,0,*51
1489035897.49,59481,6.94,73220.3,-6.31,-15.15,-14.43,0,*57
1489035898.72,59482,6.94,73218.8,-6.33,-15.25,-14.37,0,*56
1489035899.95,59483,6.94,73214.0,-6.31,-15.29,-14.43,0,*5A
1489035901.18,59484,6.94,73214.3,-6.33,-15.25,-14.37,0,*50
1489035902.4,59485,6.94,73212.5,-6.31,-15.21,-14.29,0,*58
1489035903.62,59486,6.94,73214.8,-6.31,-15.21,-14.15,0,*54
1489035904.85,59487,6.94,73228.0,-6.33,-15.15,-14.19,0,*5C
1489035906.05,59488,6.94,73222.0,-6.31,-15.15,-14.11,0,*59
1489035907.3,59489,6.94,73216.0,-6.33,-15.07,-14.01,0,*58
1489035908.55,59490,6.94,73212.3,-6.33,-15.01,-13.93,0,*5A
1489035909.79,59491,6.94,73208.5,-6.33,-14.93,-13.93,0,*51
1489035911.05,59492,6.94,73226.0,-6.33,-15.15,-14.01,0,*51
1489035912.3,59493,6.94,73218.3,-6.33,-15.15,-14.05,0,*54
1489035913.56,59494,6.94,73226.5,-6.33,-15.07,-14.01,0,*54
1489035914.8,59495,6.94,73230.3,-6.33,-15.01,-13.93,0,*5F
1489035916.08,59496,6.94,73224.3,-6.33,-14.93,-14.01,0,*5A
1489035917.31,59497,6.94,73234.0,-6.33,-15.07,-14.15,0,*52
1489035918.54,59498,6.94,73238.0,-6.33,-15.07,-14.15,0,*5D
1489035919.75,59499,6.94,73242.3,-6.31,-14.97,-14.11,0,*52
1489035920.98,59500,6.94,73236.0,-6.33,-15.07,-14.19,0,*51
1489035922.2,59501,6.94,73234.8,-6.33,-15.07,-14.19,0,*50
1489035923.44,59502,6.94,73240.5,-6.33,-15.15,-14.29,0,*53
1489035924.64,59503,6.94,73248.0,-6.35,-15.07,-14.33,0,*5C
1489035925.86,59504,6.94,73242.8,-6.35,-15.01,-14.29,0,*56
1489035927.08,59505,6.94,73236.0,-6.31,-15.01,-14.29,0,*53
1489035928.31,59506,6.94,73238.8,-6.33,-15.07,-14.33,0,*5F
1489035929.56,59507,6.94,73238.8,-6.33,-14.93,-14.29,0,*59
1489035930.81,59508,6.94,73232.5,-6.33,-14.93,-14.33,0,*5D
1489035932.06,59509,6.94,73240.3,-6.33,-14.93,-14.33,0,*5C
1489035933.33,59510,6.94,73240.5,-6.33,-15.01,-14.43,0,*59
1489035934.57,59511,6.94,73246.3,-6.33,-14.93,-14.37,0,*51
1489035935.82,59512,6.94,73240.8,-6.33,-15.01,-14.37,0,*58
1489035937.05,59513,6.94,73240.8,-6.31,-14.83,-14.29,0,*5F
1489035938.29,59514,6.94,73240.3,-6.33,-14.89,-14.29,0,*50
1489035939.54,59515,6.94,73236.8,-6.33,-14.79,-14.33,0,*55
1489035940.79,59516,6.94,73236.8,-6.33,-14.79,-14.33,0,*56
1489035942.02,59517,6.94,73232.5,-6.31,-14.75,-14.29,0,*52
1489035943.24,59518,6.94,73226.5,-6.33,-14.65,-14.23,0,*54
1489035944.47,59519,6.94,73220.3,-6.33,-14.65,-14.29,0,*5F
1489035945.7,59520,6.94,73218.8,-6.33,-14.61,-14.15,0,*5E
1489035946.93,59521,6.94,73208.8,-6.33,-14.61,-14.19,0,*53
1489035948.16,59522,6.94,73204.5,-6.31,-14.55,-14.15,0,*59
1489035949.37,59523,6.94,73212.0,-6.31,-14.61,-14.23,0,*5A
1489035950.56,59524,6.94,73216.8,-6.31,-14.69,-14.29,0,*5F
1489035951.76,59525,6.94,73224.3,-6.31,-14.61,-14.29,0,*56
1489035953.02,59526,6.94,73216.5,-6.33,-14.75,-14.33,0,*59
1489035954.22,59527,6.94,73226.8,-6.31,-14.61,-14.33,0,*5F
1489035955.41,59528,6.94,73222.3,-6.31,-14.69,-14.29,0,*53
1489035956.62,59529,6.94,73216.3,-6.31,-14.61,-14.29,0,*5A
1489035957.82,59530,6.94,73208.5,-6.31,-14.61,-14.23,0,*58
1489035959.02,59531,6.94,73214.8,-6.31,-14.61,-14.29,0,*53
1489035960.26,59532,6.94,73204.5,-6.31,-14.47,-14.15,0,*5B
1489035961.5,59533,6.94,73198.5,-6.31,-14.47,-14.11,0,*5E
1489035962.72,59534,6.94,73188.3,-6.31,-14.55,-14.11,0,*5A
1489035963.96,59535,6.94,73192.3,-6.31,-14.55,-14.15,0,*5F
1489035965.21,59536,6.94,73178.0,-6.29,-14.55,-14.15,0,*55
1489035966.48,59537,6.94,73190.5,-6.25,-14.43,-14.05,0,*5E
1489035967.73,59538,6.94,73184.0,-6.29,-14.47,-14.11,0,*5C
1489035968.98,59539,6.94,73190.5,-6.29,-14.55,-14.11,0,*5E
1489035970.23,59540,6.94,73170.5,-6.29,-14.55,-14.11,0,*50
1489035971.5,59541,6.94,73170.8,-6.25,-14.51,-13.97,0,*50
1489035972.79,59542,6.94,73170.8,-6.29,-14.55,-14.01,0,*53
1489035974.02,59543,6.94,73182.0,-6.25,-14.51,-13.93,0,*56
1489035975.25,59544,6.94,73172.8,-6.25,-14.55,-13.93,0,*55
1489035976.49,59545,6.94,73166.5,-6.25,-14.55,-13.93,0,*54
1489035977.72,59546,6.94,73174.3,-6.25,-14.55,-13.93,0,*57
1489035978.98,59547,6.94,73182.0,-6.25,-14.55,-13.83,0,*57
1489035980.24,59548,6.94,73186.0,-6.25,-14.55,-13.79,0,*5D
1489035981.49,59549,6.94,73182.5,-6.25,-14.55,-13.79,0,*5C
1489035982.75,59550,6.94,73188.8,-6.25,-14.51,-13.79,0,*50
1489035983.98,59551,6.94,73186.5,-6.25,-14.55,-13.69,0,*54
1489035985.24,59552,6.94,73186.3,-6.23,-14.43,-13.55,0,*59
1489035986.48,59553,6.94,73190.8,-6.21,-14.37,-13.37,0,*5D
1489035987.74,59554,6.94,73192.0,-6.23,-14.43,-13.51,0,*5B
1489035988.97,59555,6.94,73192.8,-6.25,-14.29,-13.29,0,*5F
1489035990.18,59556,6.94,73190.3,-6.21,-14.19,-13.15,0,*54
1489035991.42,59557,6.94,73200.0,-6.23,-14.11,-13.07,0,*5C
1489035992.66,59558,6.94,73200.3,-6.21,-14.05,-13.15,0,*57
1489035993.9,59559,6.94,73198.0,-6.23,-14.11,-13.19,0,*5D
1489035995.17,59560,6.94,73192.3,-6.23,-13.97,-13.11,0,*56
1489035996.42,59561,6.94,73188.3,-6.21,-13.87,-13.01,0,*55
1489035997.63,59562,6.94,73194.5,-6.21,-13.93,-13.07,0,*55
1489035998.86,59563,6.94,73194.8,-6.23,-13.65,-13.07,0,*5F
1489036000.06,59564,6.94,73192.0,-6.21,-13.65,-13.07,0,*5A
1489036001.29,59565,6.94,73194.5,-6.23,-13.65,-13.07,0,*59
1489036002.52,59566,6.94,73192.3,-6.23,-13.55,-13.07,0,*59
1489036003.76,59567,6.94,73192.5,-6.23,-13.51,-13.07,0,*5C
1489036004.99,59568,6.94,73198.0,-6.21,-13.33,-13.07,0,*55
1489036006.25,59569,6.94,73202.0,-6.23,-13.37,-13.11,0,*55
1489036007.49,59570,6.94,73208.0,-6.23,-13.23,-13.11,0,*58
1489036008.73,59571,6.94,73208.0,-6.23,-13.19,-13.07,0,*57
1489036009.96,59572,6.94,73208.5,-6.23,-13.11,-13.11,0,*5B
1489036011.19,59573,6.94,73208.5,-6.23,-12.93,-13.07,0,*56
1489036012.44,59574,6.94,73204.8,-6.23,-12.83,-13.07,0,*50
1489036013.7,59575,6.94,73208.0,-6.23,-12.83,-13.07,0,*51
1489036014.95,59576,6.94,73206.0,-6.21,-12.65,-13.01,0,*5E
1489036016.18,59577,6.94,73208.0,-6.21,-12.61,-13.07,0,*5D
1489036017.4,59578,6.94,73204.8,-6.21,-12.61,-13.07,0,*52
1489036018.63,59579,6.94,73200.8,-6.21,-12.61,-13.23,0,*55
1489036019.92,59580,6.94,73194.8,-6.23,-12.65,-13.37,0,*50
1489036021.17,59581,6.94,73192.5,-6.21,-12.61,-13.33,0,*53
1489036022.43,59582,6.94,73192.0,-6.23,-12.65,-13.51,0,*52
1489036023.67,59583,6.94,73188.3,-6.21,-12.75,-13.51,0,*50
1489036024.92,59584,6.94,73192.5,-6.23,-12.79,-13.55,0,*5D
1489036026.18,59585,6.94,73194.8,-6.23,-12.79,-13.65,0,*5F
1489036027.44,59586,6.94,73198.3,-6.21,-12.75,-13.61,0,*56
1489036028.7,59587,6.94,73198.3,-6.23,-12.79,-13.65,0,*5D
1489036029.93,59588,6.94,73200.5,-6.21,-12.79,-13.65,0,*50
1489036031.14,59589,6.94,73198.0,-6.21,-12.89,-13.65,0,*5E
1489036032.39,59590,6.94,73198.8,-6.21,-13.01,-13.79,0,*5A
1489036033.62,59591,6.94,73198.0,-6.21,-13.19,-13.87,0,*53
1489036034.84,59592,6.94,73200.3,-6.21,-13.15,-13.87,0,*5C
1489036036.05,59593,6.94,73202.8,-6.21,-13.19,-13.93,0,*54
1489036037.28,59594,6.94,73202.8,-6.21,-13.37,-13.93,0,*5F
1489036038.5,59595,6.94,73192.5,-6.21,-13.37,-13.93,0,*5E
1489036039.76,59596,6.94,73190.5,-6.19,-13.47,-14.01,0,*5D
1489036041.04,59597,6.94,73176.5,-6.19,-13.51,-14.01,0,*5B
1489036042.31,59598,6.94,73172.0,-6.19,-13.51,-14.01,0,*54
1489036043.57,59599,6.94,73188.0,-6.19,-13.65,-14.05,0,*56
1489036044.84,59600,6.94,73190.8,-6.19,-13.79,-14.15,0,*59
1489036046.07,59601,6.94,73186.0,-6.21,-13.87,-14.15,0,*52
1489036047.33,59602,6.94,73182.3,-6.19,-13.93,-14.05,0,*5E
1489036048.6,59603,6.94,73182.0,-6.19,-14.01,-14.19,0,*5E
1489036049.84,59604,6.94,73180.3,-6.19,-14.19,-14.23,0,*59
1489036051.09,59605,6.94,73190.5,-6.19,-14.23,-14.33,0,*50
1489036052.33,59606,6.94,73198.0,-6.19,-14.23,-14.23,0,*52
1489036053.58,59607,6.94,73206.5,-6.19,-14.23,-14.23,0,*53
1489036054.79,59608,6.94,73206.5,-6.17,-14.29,-14.15,0,*5D
1489036056.0,59609,6.94,73198.0,-6.17,-14.19,-14.11,0,*5B
1489036057.24,59610,6.94,73190.8,-6.19,-14.33,-14.15,0,*51
1489036058.48,59611,6.94,73178.8,-6.19,-14.33,-14.15,0,*50
1489036059.72,59612,6.94,73176.8,-6.19,-14.37,-14.15,0,*57
1489036060.95,59613,6.94,73146.3,-6.17,-14.43,-14.11,0,*5F
1489036062.19,59614,6.94,73140.8,-6.19,-14.33,-14.15,0,*55
1489036063.43,59615,6.94,73166.3,-6.19,-14.37,-14.19,0,*5C
1489036064.64,59616,6.94,73170.8,-6.17,-14.33,-14.15,0,*59
1489036065.87,59617,6.94,73170.0,-6.17,-14.43,-14.29,0,*50
1489036067.11,59618,6.94,73186.3,-6.17,-14.47,-14.19,0,*58
1489036068.38,59619,6.94,73200.3,-6.19,-14.51,-14.23,0,*59
1489036069.65,59620,6.94,73196.0,-6.19,-14.51,-14.23,0,*53
1489036070.92,59621,6.94,73194.3,-6.19,-14.51,-14.23,0,*52
1489036072.16,59622,6.94,73196.0,-6.17,-14.47,-14.15,0,*5D
1489036073.4,59623,6.94,73190.5,-6.17,-14.55,-14.19,0,*53
1489036074.66,59624,6.94,73198.3,-6.19,-14.51,-14.19,0,*5E
1489036075.91,59625,6.94,73192.3,-6.17,-14.47,-14.15,0,*5A
1489036077.15,59626,6.94,73172.5,-6.17,-14.47,-14.11,0,*5D
1489036078.38,59627,6.94,73172.0,-6.19,-14.61,-14.19,0,*5E
1489036079.61,59628,6.94,73166.0,-6.19,-14.65,-14.23,0,*5C
1489036080.85,59629,6.94,73168.5,-6.19,-14.61,-14.33,0,*58
1489036082.12,59630,6.88,73174.8,-6.19,-14.51,-14.33,0,*53
1489036083.35,59631,6.94,73196.5,-6.17,-14.55,-14.19,0,*50
1489036084.62,59632,6.94,73208.0,-6.19,-14.51,-14.15,0,*55
1489036085.89,59633,6.94,73206.0,-6.19,-14.51,-14.15,0,*54
1489036087.17,59634,6.94,73200.0,-6.19,-14.47,-14.15,0,*54
1489036088.43,59635,6.94,73202.5,-6.17,-14.43,-14.01,0,*5A
1489036089.66,59636,6.94,73204.0,-6.17,-14.43,-14.11,0,*58
1489036090.93,59637,6.94,73210.0,-6.19,-14.37,-14.01,0,*55
1489036092.22,59638,6.88,73218.5,-6.19,-14.47,-14.05,0,*59
1489036093.49,59639,6.94,73222.3,-6.19,-14.47,-14.11,0,*5D
1489036094.79,59640,6.94,73202.5,-6.19,-14.47,-14.05,0,*56
1489036096.05,59641,6.94,73194.5,-6.17,-14.43,-14.01,0,*59
1489036097.28,59642,6.94,73204.8,-6.17,-14.43,-14.11,0,*5B
1489036098.54,59643,6.94,73204.3,-6.17,-14.43,-13.97,0,*53
1489036099.8,59644,6.94,73214.3,-6.17,-14.43,-14.01,0,*5C
1489036101.04,59645,6.94,73194.8,-6.17,-14.33,-13.97,0,*52
1489036102.27,59646,6.94,73184.0,-6.17,-14.33,-13.87,0,*50
1489036103.5,59647,6.94,73190.3,-6.17,-14.33,-13.87,0,*51
1489036104.77,59648,6.94,73178.5,-6.19,-14.37,-14.01,0,*5D
1489036106.03,59649,6.94,73176.3,-6.17,-14.47,-13.87,0,*5C